Location: ???????
(55.4231°N, 38.5570°E)
Time: 13:51:21
(UTC+00:00)

Cosmos 1707 Rocket - Pass Details

Date: 05 August 2024
Orbit: 602 x 626 km, 82.5° (Epoch: 18 September)

Event Time Altitude Azimuth Distance (km) Brightness Sun altitude
Rises 00:11:30 0° 342° (NNW) 2,890 7.5 -10.2°
Reaches altitude 10° 00:13:53 10° 333° (NNW) 1,985 6.5 -10.0°
Maximum altitude 00:17:48 33° 270° (W) 1,042 4.4 -9.6°
Enters shadow 00:21:26 12° 208° (SSW) 1,872 5.4 -9.3°
